Home > Weather > Chichester > Past weeks

Flag for United Kingdom Past Weather in Chichester, England, United Kingdom — Yesterday and Last 2 Weeks

Now
54 °F

Cool.


Feels Like: 51 °F
Forecast: 52 / 66 °F
Wind: 12 mph from North

Location: Thorney Island

Current Time: May 29, 2016 at 10:48:46 AM

Latest Report: May 29, 2016 at 8:00 AM


Visibility: 10 mi

Pressure: 29.88 "Hg

Humidity: 76%

Dew Point: 46 °F

Location of ChichesterLocation

Past Weather in Chichester — Graph

°F

Chichester Temperature Yesterday

Maximum temperature yesterday: 69 °F (at 5:00 PM)
Minimum temperature yesterday: 50 °F (at 5:00 AM)
Average temperature yesterday: 59 °F

High & Low Weather Summary for the Past Weeks

 TemperatureHumidityPressure
High69 °F (May 28, 5:00 PM)99% (May 26, 6:00 AM)30.22 "Hg (May 26, 6:00 AM)
Low39 °F (May 15, 4:00 AM)44% (May 23, 3:00 PM)29.62 "Hg (May 18, 2:00 PM)
Average55 °F80%29.98 "Hg
* Reported May 14 8:00 AM — May 29 8:00 AM, Chichester, Weather by CustomWeather, © 2016

Note: Actual official high and low records may vary slightly from our data, if they occured in-between our weather recording intervals... More about our weather records

Advertising

Chichester Weather History for the Previous 24 Hours

Scroll right to see more
 ConditionsComfort  
Time TempWeatherWind HumidityBarometerVisibility
8:00 AM
Sun, May 29
54 °FCool.12 mph76%29.88 "Hg10 mi
7:00 AM51 °FCool.12 mph79%29.88 "Hg13 mi
6:00 AM51 °FCool.10 mph80%29.87 "Hg10 mi
5:00 AM52 °FCool.10 mph81%29.87 "Hg7 mi
4:00 AM53 °FCool.9 mph81%29.89 "Hg8 mi
3:00 AM54 °FCool.6 mph81%29.89 "Hg10 mi
2:00 AM55 °FCool.10 mph85%29.90 "Hg9 mi
1:00 AM55 °FCool.9 mph86%29.91 "Hg9 mi
12:00 AM54 °FCool.5 mph89%29.91 "Hg6 mi
11:00 PM
Sat, May 28
55 °FCool.5 mph87%29.90 "Hg7 mi
10:00 PM59 °FCool.5 mph78%29.92 "Hg12 mi
9:00 PM62 °FCool.6 mph71%29.90 "Hg12 mi
8:00 PM65 °FMild.9 mph65%29.90 "Hg12 mi
7:00 PM67 °FMild.9 mph61%29.89 "Hg16 mi
5:00 PM69 °FMild.9 mph57%29.90 "Hg11 mi
2:00 PM66 °FMild.12 mph68%29.94 "Hg9 mi
1:00 PM66 °FMild.13 mph69%29.95 "Hg8 mi
12:00 PM65 °FMild.12 mph69%29.96 "Hg7 mi
11:00 AM64 °FMild.10 mph73%29.96 "Hg9 mi
10:00 AM60 °FCool.9 mph79%29.97 "Hg7 mi
Weather by CustomWeather, © 2016

See weather overviewHow to use our weather pages